Weather History for Calvi, France

Change the Weather History Date:

Thursday, November 7, 2013

  Actual Average Record
Temperature  
Mean Temperature 70 °F -  
Max Temperature 77 °F 60 °F 77 °F (2013)
Min Temperature 64 °F 48 °F 44 °F (1998)
Cooling Degree Days 6    
Growing Degree Days 20 (Base 50)    
Moisture  
Dew Point 52 °F    
Average Humidity 49    
Maximum Humidity 68    
Minimum Humidity 39    
Precipitation  
Precipitation 0.00 in - - ()
Sea Level Pressure  
Sea Level Pressure 29.97 in    
Wind  
Wind Speed 13 mph ()    
Max Wind Speed 18 mph    
Max Gust Speed -    
Visibility 6.2 miles    
Events      
Averages and records for this station are not official NWS values.
T = Trace of Precipitation, MM = Missing Value Source: Averaged Metar Reports

Daily Weather History Graph

Daily Weather History Graph

Search for Another Location

Airport:

Trip Planner

Search our weather history database for the weather conditions in past years. The results will help you decide how hot, cold, wet, or windy it might be!

Date:

Astronomy

Nov. 07, 2013 Rise Set
Actual Time 7:05 AM CET 5:10 PM CET
Civil Twilight 6:36 AM CET 5:40 PM CET
Nautical Twilight 6:02 AM CET 6:13 PM CET
Astronomical Twilight 5:29 AM CET 6:46 PM CET
Moon 11:01 AM CET (11/7) 9:02 PM CET (11/7)
Length of Visible Light 11h 03m
Length of Day
10h 04m
Waxing Crescent, 20% of the Moon is Illuminated
Nov 7
Waxing Crescent
Nov 10
First Quarter
Nov 17
Full
Nov 25
Last Quarter
Dec 3
New

Hourly Weather History & Observations

Time (CET) Temp. Dew Point Humidity Pressure Visibility Wind Dir Wind Speed Gust Speed Precip Events Conditions
7:00 AM 66.2 °F 53.6 °F 64% 29.92 in - South 17.3 mph - N/A   Clear
7:44 AM 64.4 °F 53.6 °F 68% 29.95 in - South 15.0 mph - N/A   Clear
8:00 AM 64.4 °F 53.6 °F 68% 29.95 in 6.2 mi South 16.1 mph - N/A   Partly Cloudy
8:30 AM 66.2 °F 53.6 °F 64% 29.95 in 6.2 mi South 16.1 mph - N/A   Partly Cloudy
9:00 AM 68.0 °F 53.6 °F 60% 29.98 in 6.2 mi South 17.3 mph - N/A   Partly Cloudy
9:30 AM 69.8 °F 53.6 °F 56% 29.98 in 6.2 mi South 12.7 mph - N/A   Partly Cloudy
10:00 AM 71.6 °F 53.6 °F 53% 29.98 in 6.2 mi South 12.7 mph - N/A   Partly Cloudy
10:30 AM 73.4 °F 50.0 °F 44% 29.98 in - SSW 13.8 mph - N/A   Clear
11:00 AM 75.2 °F 50.0 °F 41% 29.98 in - SSW 18.4 mph - N/A   Clear
11:30 AM 77.0 °F 51.8 °F 41% 29.98 in - SSW 17.3 mph - N/A   Clear
12:30 PM 77.0 °F 51.8 °F 41% 29.98 in - SSW 15.0 mph - N/A   Clear
1:00 PM 77.0 °F 55.4 °F 47% 29.98 in - SSW 15.0 mph - N/A   Clear
1:30 PM 77.0 °F 50.0 °F 39% 29.98 in - SSW 15.0 mph - N/A   Clear
2:00 PM 77.0 °F 51.8 °F 41% 29.98 in - SW 13.8 mph - N/A   Clear
3:00 PM 75.2 °F 50.0 °F 41% 29.98 in - SW 12.7 mph - N/A   Clear
3:30 PM 73.4 °F 50.0 °F 44% 29.98 in - SW 11.5 mph - N/A   Clear
4:00 PM 73.4 °F 48.2 °F 41% 29.98 in - SW 13.8 mph - N/A   Clear
4:30 PM 71.6 °F 48.2 °F 43% 29.98 in - SSW 13.8 mph - N/A   Clear
5:00 PM 71.6 °F 48.2 °F 43% 29.98 in - South 17.3 mph - N/A   Clear
5:30 PM 71.6 °F 50.0 °F 46% 29.98 in - SSW 15.0 mph - N/A   Clear